Location: Unspecified
(51.5147°N, 7.4673°E)
Time: 03:34:51
(UTC+01:00)

Explorer 7 - Pass Details

Date: 24 February 2026
Orbit: 430 x 541 km, 50.2° (Epoch: 12 March)

Event Time Altitude Azimuth Distance (km) Brightness Sun altitude
Rises 18:11:16 0° 280° (W) 2,475 11.7 -2.3°
Reaches altitude 10° 18:13:32 10° 270° (W) 1,618 11.1 -2.7°
Maximum altitude 18:16:46 30° 208° (SSW) 877 8.4 -3.2°
Drops below altitude 10° 18:20:06 10° 146° (SE) 1,672 9.1 -3.7°
Sets 18:22:29 0° 135° (SE) 2,574 9.9 -4.0°
